This is the latest recevied weather packets stored in our database for station/object SQ9NFI-4. If no packets are shown the sender has not sent any weather packets the latest 10 day(s).
| Time | Temp. | Humidity | Pressure | Rain* | Wind** | Luminosity | Snow |
|---|---|---|---|---|---|---|---|
| 1777117723 | 18.33° C | 43% | 1011.9 hPa | 0 mm | - | 654 W/m² | - |
| 1777117423 | 18.33° C | 47% | 1011.9 hPa | 0 mm | - | 617 W/m² | - |
| 1777117123 | 18.33° C | 44% | 1011.9 hPa | 0 mm | - | 589 W/m² | - |
| 1777116823 | 18.33° C | 45% | 1011.9 hPa | 0 mm | - | 643 W/m² | - |
| 1777116523 | 17.78° C | 47% | 1011.9 hPa | 0 mm | - | 552 W/m² | - |
| 1777116223 | 18.33° C | 45% | 1011.9 hPa | 0 mm | - | 603 W/m² | - |
| 1777115923 | 17.78° C | 46% | 1011.9 hPa | 0 mm | - | 657 W/m² | - |
| 1777115623 | 17.78° C | 48% | 1012.2 hPa | 0 mm | - | 623 W/m² | - |
| 1777115323 | 17.78° C | 49% | 1012.2 hPa | 0 mm | - | 536 W/m² | - |
| 1777115023 | 16.67° C | 49% | 1012.2 hPa | 0 mm | - | 609 W/m² | - |
| 1777114723 | 17.22° C | 51% | 1012.2 hPa | 0 mm | - | 586 W/m² | - |
| 1777114423 | 16.67° C | 49% | 1012.2 hPa | 0 mm | - | 700 W/m² | - |
| 1777114123 | 16.67° C | 50% | 1012.5 hPa | 0 mm | - | 643 W/m² | - |
| 1777113823 | 16.67° C | 50% | 1012.5 hPa | 0 mm | - | 631 W/m² | - |
| 1777113523 | 16.11° C | 51% | 1012.5 hPa | 0 mm | - | 614 W/m² | - |
| 1777113223 | 16.11° C | 51% | 1012.5 hPa | 0 mm | - | 609 W/m² | - |
| 1777112923 | 16.11° C | 53% | 1012.5 hPa | 0 mm | - | 553 W/m² | - |
| 1777112623 | 16.11° C | 52% | 1012.5 hPa | 0 mm | - | 216 W/m² | - |
| 1777112323 | 16.67° C | 53% | 1012.5 hPa | 0 mm | - | 572 W/m² | - |
| 1777112023 | 16.67° C | 53% | 1012.5 hPa | 0 mm | - | 574 W/m² | - |
| 1777111723 | 16.11° C | 54% | 1012.5 hPa | 0 mm | - | 629 W/m² | - |
| 1777111423 | 15.56° C | 52% | 1012.5 hPa | 0 mm | - | 674 W/m² | - |
| 1777111123 | 16.11° C | 55% | 1012.5 hPa | 0 mm | - | 566 W/m² | - |
| 1777110823 | 15.56° C | 55% | 1012.5 hPa | 0 mm | - | 314 W/m² | - |
| 1777110523 | 15.56° C | 55% | 1013.2 hPa | 0 mm | - | 674 W/m² | - |
* Rain latest hour (hover to see other rain measurements)
** Current wind speed in m/s (hover to see current wind gust speed)